FW3590 Weather Reports


time (UTC)temp
C
wind
direction
speed
KPH
gust
KPH
rain 1hr
cm
rain 24hr
cm
rain mn
cm
humidity
%
barometer
mb
20260507093047 7 73 11.3 17.7 0.13 4.06 0.69 93 1014.3
20260507091544 7 74 11.3 17.7 0.13 3.99 0.61 94 1014.2
20260507090040 7 73 8.0 14.5 0.13 3.99 0.61 94 1014.0
20260507084536 7 55 11.3 17.7 0.10 4.09 0.58 95 1013.9
20260507083034 7 100 9.7 17.7 0.08 4.09 0.56 95 1013.6
20260507081531 7 73 8.0 14.5 0.03 4.01 0.51 95 1013.6
20260507080030 7 50 6.4 14.5 0.00 3.99 0.48 96 1013.4
20260507074527 7 53 3.2 12.9 0.00 4.04 0.48 96 1013.2
20260507073027 7 73 6.4 12.9 0.00 4.04 0.48 96 1013.0
20260507071524 7 79 8.0 12.9 0.00 4.04 0.48 96 1013.0
20260507070028 7 63 4.8 11.3 0.00 4.04 0.48 96 1012.8
20260507064521 7 42 9.7 14.5 0.00 4.14 0.48 96 1012.6
20260507063019 7 49 4.8 12.9 0.00 4.14 0.48 96 1012.5
20260507061517 7 52 6.4 11.3 0.00 4.14 0.48 96 1012.2
20260507060015 7 34 9.7 17.7 0.08 4.14 0.48 96 1012.0
20260507054519 7 34 9.7 19.3 0.18 4.32 0.48 96 1011.8
20260507053012 7 41 9.7 16.1 0.33 4.32 0.48 96 1011.7
20260507051510 7 84 9.7 14.5 0.36 4.32 0.48 96 1011.4
20260507050008 7 72 11.3 22.5 0.33 4.24 0.41 96 1011.4
20260507044506 7 61 14.5 22.5 0.25 4.19 0.30 96 1011.1
20260507043006 7 53 9.7 17.7 0.10 4.01 0.15 96 1011.0
20260507041601 7 59 16.1 20.9 0.08 3.99 0.13 96 1010.9
20260507040100 7 55 9.7 19.3 0.05 3.96 0.08 96 1010.8
20260507034557 7 48 8.0 16.1 0.03 3.96 0.05 96 1010.7
20260507033057 7 56 11.3 16.1 0.03 3.96 0.05 96 1010.6
20260507031549 7 20 9.7 14.5 0.03 3.96 0.05 96 1010.5
20260507030047 7 52 8.0 14.5 0.00 3.94 0.03 96 1010.5
20260507024548 8 38 8.0 11.3 0.00 4.01 0.03 96 1010.3
20260507023048 8 55 8.0 14.5 0.00 4.01 0.03 96 1010.3
20260507021544 8 52 6.4 12.9 0.00 4.01 0.03 96 1010.1
20260507014540 8 58 8.0 11.3 0.00 4.11 0.03 96 1009.9
20260507013048 8 42 4.8 9.7 0.00 4.11 0.03 96 1009.8
20260507011537 8 40 3.2 8.0 0.00 4.11 0.03 96 1009.7
20260507010037 8 32 4.8 8.0 0.00 4.11 0.03 96 1009.8
20260507004538 8 34 6.4 11.3 0.00 4.75 0.03 96 1009.7
20260507003041 8 56 8.0 12.9 0.00 4.75 0.03 96 1009.5
20260507001533 8 42 8.0 12.9 0.00 4.75 0.03 96 1009.4
20260507000034 8 40 4.8 12.9 0.00 4.75 0.03 96 1009.3
20260506234529 8 47 9.7 12.9 0.00 4.90 0.03 96 1009.4
20260506233028 8 52 8.0 14.5 0.00 4.90 0.03 96 1009.3
20260506231526 8 24 11.3 17.7 0.03 4.90 0.03 96 1009.2
20260506230024 8 23 11.3 16.1 0.03 4.90 0.03 96 1009.2
20260506224522 8 24 9.7 16.1 0.03 5.18 0.03 96 1009.2
20260506223020 8 36 8.0 17.7 0.03 5.18 0.03 96 1009.0
20260506221519 8 29 9.7 16.1 0.00 5.13 0.00 96 1009.1
20260506220016 8 42 8.0 12.9 0.00 5.13 0.00 96 1009.0
20260506214524 8 34 8.0 12.9 0.00 6.35 5.13 96 1008.9
20260506213016 8 27 8.0 12.9 0.00 6.35 5.13 96 1008.8
20260506211511 8 21 8.0 12.9 0.00 6.35 5.13 96 1008.8
20260506210012 8 51 8.0 11.3 0.05 6.35 5.13 96 1008.6
20260506204509 8 52 8.0 11.3 0.18 7.57 5.13 96 1008.6
20260506203008 8 67 8.0 11.3 0.28 7.57 5.13 96 1008.6
20260506201509 8 40 8.0 14.5 0.30 7.57 5.13 96 1008.5
20260506200006 8 48 11.3 20.9 0.48 7.52 5.13 96 1008.4
20260506194505 8 61 12.9 19.3 0.36 8.36 4.98 96 1008.4
20260506193003 8 49 12.9 17.7 0.25 8.23 4.85 96 1008.2
20260506191600 8 48 11.3 16.1 0.41 8.23 4.85 96 1008.0
20260506184603 8 15 9.7 20.9 0.30 8.56 4.62 96 1007.7
20260506183103 8 50 9.7 19.3 0.30 8.51 4.57 96 1007.7
20260506181620 8 67 12.9 17.7 0.23 8.41 4.47 96 1007.5
20260506180053 8 45 9.7 24.1 0.20 8.33 4.39 96 1007.5
20260506174550 8 61 12.9 19.3 0.15 8.33 4.32 96 1007.1
20260506173058 8 36 11.3 19.3 0.18 8.31 4.29 96 1007.1
20260506171549 8 30 14.5 19.3 0.13 8.23 4.22 96 1007.1
20260506170050 8 48 11.3 16.1 0.13 8.23 4.19 96 1006.9
20260506164549 8 49 9.7 20.9 0.18 8.56 4.17 96 1007.0
20260506163050 8 23 11.3 17.7 0.23 8.51 4.09 96 1007.0
20260506161548 8 49 11.3 17.7 0.28 8.51 4.09 96 1007.1
20260506160052 8 41 11.3 22.5 0.28 8.48 4.09 96 1007.0
20260506154547 8 38 12.9 20.9 0.23 8.79 3.99 96 1007.1
20260506153106 8 39 6.4 17.7 0.18 8.69 3.89 96 1007.1
20260506151545 8 67 14.5 19.3 0.15 8.61 3.81 96 1007.1
20260506150053 8 33 11.3 17.7 0.13 8.61 3.81 96 1007.1
20260506144549 8 32 11.3 20.9 0.10 8.89 3.76 96 1007.1
20260506143042 8 21 11.3 16.1 0.18 8.81 3.68 96 1006.8
20260506141541 8 46 11.3 17.7 0.30 8.81 3.68 96 1006.9
20260506140041 8 40 11.3 19.3 0.46 8.81 3.68 96 1006.9
20260506134540 8 48 11.3 22.5 0.69 8.92 3.66 96 1006.8
20260506133042 8 53 14.5 20.9 0.69 8.76 3.51 96 1006.7
20260506131541 8 37 11.3 24.1 0.64 8.64 3.38 95 1006.7
20260506130038 8 51 12.9 22.5 0.56 8.48 3.23 95 1006.6
20260506124536 8 78 14.5 20.9 0.53 8.36 2.97 95 1006.6
20260506123037 8 55 14.5 22.5 0.43 8.20 2.82 95 1006.6
20260506121535 8 57 9.7 17.7 0.61 8.13 2.74 96 1006.4
20260506120039 8 73 17.7 24.1 0.51 8.05 2.67 96 1006.4
20260506114536 8 88 9.7 22.5 0.30 8.18 2.44 96 1006.4
20260506113040 8 70 11.3 22.5 0.23 8.05 2.31 96 1006.4
20260506111533 8 82 11.3 16.1 0.08 7.87 2.13 96 1006.4
20260506110033 7 72 11.3 17.7 0.10 7.87 2.13 96 1006.4
20260506104534 7 46 12.9 20.9 0.18 7.87 2.13 96 1006.4
20260506103031 7 71 12.9 19.3 0.15 7.82 2.08 96 1006.5
20260506101530 7 65 8.0 16.1 0.23 7.80 2.06 96 1006.3
20260506100028 7 64 16.1 20.9 0.25 7.77 2.03 96 1006.3
20260506094527 7 73 16.1 24.1 0.23 7.80 1.96 96 1006.3